Starlink 32401

operational
NORAD ID: 61865 Int'l Des: 2024-202 Owner: SPXS Country: US Constellation: starlink
LEOCIRCULAR

关于 Starlink 32401

正在加载描述...

实时位置

正在加载3D地球...

即将过境

高度历史

Altitude vs Time

uPlot chart will show altitude changes over time

两行轨道根数

1 61865U 24202W 26036.12779938 .00000022 00000-0 10308-4 0 9999
2 61865 43.0039 62.2295 0000868 232.6484 127.4288 15.27579958 70359
Epoch: Feb 5, 2026 • Age: 12 hours

当前状态

高度 483.0 km
速度 7.63 km/s
星下点 -3.90°S, 115.06°W
发射日期 Nov 7, 2024
运行时间 1.2 years
类型 internet

技术详情

分类 Payload
质量 730.00 kg
干质量 700.00 kg
总质量 730.00 kg
长度 0.30 m
直径 4.10 m
跨度 29.00 m
形状 Box + pan
制造商 SPXS
平台类型 Starlink V2M
阶段状态 In Orbit
所有者/国家 SPXS/US

大型星座

Loading constellations...